Total_Precipitation_Accumulation
0.36 0.35 0.37 0.34 0.28 0.24 0.21 0.18 0.13 0.11 0.10 0.09 0.08 0.06 0.05 0.05 0.05 0.04 0.04 0.03 0.03 0.03 0.05 0.08 0.10 0.13 0.17 0.20 0.24 0.25 0.21 0.16 0.14 0.13 0.12 0.10 0.09 0.09 0.10 0.11 0.12 0.12 0.13
0.42 0.40 0.37 0.35 0.31 0.27 0.24 0.20 0.16 0.15 0.13 0.12 0.10 0.09 0.07 0.06 0.05 0.05 0.05 0.04 0.04 0.03 0.03 0.05 0.10 0.17 0.25 0.30 0.34 0.33 0.29 0.24 0.21 0.18 0.17 0.15 0.14 0.13 0.13 0.14 0.14 0.14 0.16
0.50 0.47 0.42 0.34 0.30 0.30 0.29 0.26 0.25 0.23 0.17 0.13 0.10 0.09 0.08 0.07 0.06 0.06 0.06 0.05 0.05 0.04 0.04 0.04 0.08 0.16 0.25 0.31 0.38 0.43 0.40 0.35 0.30 0.27 0.24 0.23 0.21 0.19 0.18 0.18 0.18 0.19 0.20
0.66 0.60 0.49 0.40 0.41 0.44 0.42 0.36 0.32 0.27 0.21 0.17 0.14 0.12 0.11 0.09 0.08 0.07 0.07 0.06 0.05 0.05 0.04 0.04 0.07 0.12 0.20 0.28 0.39 0.49 0.51 0.48 0.43 0.37 0.32 0.29 0.28 0.25 0.24 0.22 0.23 0.23 0.24
0.76 0.71 0.58 0.52 0.57 0.54 0.48 0.42 0.36 0.32 0.28 0.25 0.23 0.20 0.17 0.14 0.12 0.11 0.09 0.09 0.08 0.07 0.07 0.08 0.09 0.10 0.13 0.17 0.27 0.41 0.52 0.55 0.50 0.42 0.38 0.35 0.32 0.30 0.29 0.28 0.28 0.27 0.27
0.84 0.78 0.69 0.66 0.71 0.68 0.59 0.54 0.47 0.43 0.39 0.38 0.35 0.26 0.21 0.19 0.16 0.14 0.12 0.11 0.11 0.12 0.12 0.12 0.12 0.12 0.12 0.14 0.18 0.28 0.42 0.53 0.53 0.48 0.44 0.41 0.39 0.37 0.37 0.38 0.37 0.35 0.34
1.04 0.97 0.80 0.77 0.81 0.74 0.68 0.68 0.68 0.65 0.56 0.53 0.48 0.34 0.24 0.21 0.17 0.14 0.12 0.12 0.12 0.13 0.14 0.16 0.16 0.15 0.14 0.15 0.18 0.20 0.28 0.44 0.54 0.57 0.53 0.49 0.48 0.47 0.48 0.51 0.52 0.51 0.51
1.03 1.05 1.04 0.99 0.97 0.95 0.93 0.89 0.87 0.81 0.73 0.73 0.66 0.59 0.39 0.26 0.18 0.15 0.16 0.16 0.16 0.16 0.16 0.17 0.17 0.17 0.17 0.17 0.17 0.18 0.22 0.34 0.48 0.59 0.61 0.60 0.58 0.58 0.61 0.65 0.68 0.67 0.68
1.13 1.09 1.11 1.14 1.13 1.11 1.03 1.02 1.03 1.00 0.92 0.87 0.83 0.85 0.61 0.37 0.26 0.20 0.20 0.21 0.21 0.20 0.20 0.21 0.21 0.21 0.21 0.20 0.19 0.20 0.22 0.25 0.37 0.55 0.70 0.75 0.75 0.75 0.78 0.83 0.87 0.90 0.88
1.25 1.21 1.20 1.19 1.20 1.15 1.08 1.12 1.16 1.10 1.10 1.04 0.99 0.90 0.77 0.58 0.50 0.36 0.26 0.27 0.28 0.27 0.27 0.26 0.24 0.24 0.24 0.24 0.24 0.27 0.29 0.30 0.37 0.54 0.76 0.88 0.91 0.95 1.04 1.12 1.18 1.16 1.06
1.28 1.22 1.20 1.22 1.19 1.16 1.11 1.13 1.18 1.19 1.19 1.17 1.10 1.05 1.03 0.89 0.73 0.65 0.48 0.36 0.36 0.36 0.37 0.37 0.35 0.32 0.31 0.31 0.30 0.35 0.41 0.43 0.49 0.59 0.76 0.93 1.03 1.12 1.22 1.31 1.37 1.38 1.29
1.24 1.18 1.16 1.18 1.21 1.19 1.15 1.15 1.21 1.25 1.26 1.20 1.12 1.04 1.00 0.94 0.82 0.81 0.71 0.53 0.46 0.39 0.39 0.39 0.40 0.40 0.41 0.44 0.48 0.57 0.59 0.60 0.65 0.71 0.82 0.96 1.08 1.18 1.29 1.41 1.49 1.51 1.49
1.23 1.17 1.15 1.15 1.18 1.21 1.24 1.30 1.30 1.27 1.29 1.27 1.23 1.16 1.10 1.00 0.94 0.95 0.93 0.75 0.61 0.49 0.45 0.44 0.44 0.46 0.48 0.51 0.58 0.74 0.73 0.76 0.78 0.82 0.93 1.07 1.12 1.14 1.17 1.25 1.39 1.48 1.51
1.14 1.17 1.22 1.25 1.26 1.27 1.26 1.27 1.25 1.21 1.22 1.20 1.19 1.17 1.13 1.06 1.06 1.09 1.09 1.12 1.02 0.80 0.68 0.62 0.59 0.60 0.63 0.66 0.74 0.85 0.77 0.84 0.82 0.83 0.91 1.00 1.00 0.98 0.96 1.03 1.21 1.37 1.42
1.07 1.11 1.16 1.21 1.22 1.21 1.19 1.19 1.16 1.13 1.16 1.16 1.13 1.13 1.10 1.02 1.03 1.04 1.07 1.16 1.27 1.13 0.85 0.66 0.63 0.63 0.67 0.70 0.79 0.76 0.71 0.84 0.85 0.81 0.83 0.83 0.81 0.79 0.76 0.78 0.86 1.01 1.11
0.90 0.93 1.00 1.07 1.08 1.08 1.06 1.07 1.06 1.03 1.07 1.05 1.04 1.07 1.05 0.98 0.97 1.00 1.04 1.09 1.19 1.26 1.07 0.72 0.61 0.61 0.65 0.67 0.75 0.69 0.64 0.76 0.74 0.73 0.71 0.70 0.69 0.66 0.65 0.65 0.67 0.76 0.84
0.82 0.86 0.89 0.93 0.95 0.96 0.96 0.96 0.93 0.91 0.93 0.93 0.94 0.96 0.96 0.96 0.99 1.00 1.02 1.06 1.12 1.20 1.19 0.89 0.72 0.70 0.74 0.73 0.72 0.66 0.60 0.58 0.57 0.66 0.63 0.60 0.58 0.58 0.57 0.57 0.58 0.60 0.64
0.71 0.71 0.74 0.77 0.78 0.79 0.80 0.82 0.82 0.81 0.80 0.80 0.81 0.86 0.87 0.89 0.93 0.96 1.01 1.05 1.08 1.11 1.15 1.01 0.80 0.71 0.69 0.66 0.64 0.61 0.55 0.51 0.47 0.56 0.54 0.51 0.50 0.47 0.45 0.46 0.50 0.54 0.56
0.72 0.64 0.62 0.63 0.64 0.66 0.67 0.68 0.70 0.70 0.72 0.72 0.71 0.74 0.77 0.83 0.89 0.89 0.92 0.95 0.95 0.97 1.00 0.98 0.82 0.67 0.60 0.56 0.55 0.51 0.47 0.44 0.40 0.43 0.45 0.44 0.44 0.44 0.44 0.44 0.46 0.48 0.48
0.65 0.61 0.57 0.54 0.54 0.57 0.61 0.63 0.65 0.67 0.67 0.68 0.69 0.71 0.73 0.75 0.78 0.80 0.84 0.86 0.85 0.86 0.87 0.89 0.83 0.73 0.65 0.60 0.60 0.56 0.50 0.44 0.41 0.37 0.42 0.42 0.43 0.43 0.40 0.38 0.37 0.39 0.41
0.53 0.53 0.53 0.53 0.51 0.50 0.53 0.57 0.60 0.64 0.66 0.68 0.69 0.70 0.72 0.79 0.80 0.78 0.77 0.76 0.77 0.82 0.85 0.91 0.87 0.74 0.61 0.56 0.55 0.50 0.50 0.49 0.48 0.44 0.43 0.39 0.35 0.32 0.30 0.31 0.34 0.36 0.40
0.43 0.46 0.51 0.55 0.59 0.60 0.73 0.69 0.63 0.64 0.68 0.69 0.67 0.65 0.64 0.68 0.67 0.67 0.66 0.66 0.71 0.79 0.90 0.93 0.83 0.66 0.51 0.44 0.44 0.49 0.54 0.58 0.52 0.36 0.37 0.36 0.34 0.33 0.29 0.27 0.34 0.38 0.39
0.52 0.56 0.60 0.65 0.69 0.76 0.84 0.76 0.71 0.63 0.65 0.66 0.63 0.58 0.54 0.52 0.54 0.47 0.50 0.54 0.57 0.64 0.67 0.61 0.54 0.46 0.42 0.40 0.49 0.58 0.57 0.56 0.44 0.32 0.38 0.42 0.37 0.35 0.30 0.30 0.36 0.35 0.36
0.76 0.80 0.83 0.84 0.84 0.83 0.81 0.72 0.69 0.61 0.58 0.54 0.49 0.44 0.40 0.37 0.35 0.36 0.39 0.47 0.45 0.44 0.43 0.39 0.37 0.35 0.35 0.37 0.46 0.58 0.60 0.58 0.47 0.36 0.37 0.41 0.33 0.30 0.26 0.27 0.35 0.35 0.36
0.87 0.84 0.82 0.80 0.77 0.71 0.66 0.57 0.49 0.43 0.43 0.42 0.37 0.34 0.34 0.31 0.37 0.43 0.43 0.45 0.35 0.31 0.34 0.39 0.41 0.40 0.40 0.40 0.41 0.52 0.63 0.69 0.60 0.40 0.32 0.34 0.29 0.28 0.28 0.27 0.30 0.36 0.36
0.66 0.60 0.57 0.53 0.50 0.46 0.44 0.39 0.36 0.31 0.30 0.29 0.28 0.29 0.33 0.33 0.40 0.47 0.43 0.38 0.32 0.28 0.29 0.34 0.37 0.39 0.38 0.39 0.44 0.45 0.59 0.82 0.72 0.50 0.27 0.32 0.34 0.40 0.53 0.32 0.26 0.29 0.32